Terminal Aerodrome Forecast
Issued by NWS

Home | Current Version | Previous Version | Text Only | Print | Product List | Glossary On
Versions: 1 2 3 4 5 6 7 8 9 10 11 12 13 14 15 16 17 18 19 20 21 22 23 24 25 26 27 28 29 30 31 32 33 34 35 36 37 38 39 40
852
FTUS45 KBOU 071505 AAA
TAFBJC
TAF AMD
KBJC 071505Z 0715/0812 27012KT P6SM FEW070 SCT220
     FM071700 25010KT P6SM FEW140 SCT200
     FM072200 VRB06KT P6SM FEW140 SCT200
     FM080200 27009KT P6SM SCT200
     FM080600 27012G20KT P6SM BKN200=

USA.gov is the U.S. government's official web portal to all federal, state and local government web resources and services.